Date,Installs,Update checks
2018-06-26,32,5
2018-06-27,58,22
2018-06-28,53,38
2018-06-29,46,59
2018-06-30,34,56
2018-07-01,33,72
2018-07-02,40,85
2018-07-03,40,101
2018-07-04,50,108
2018-07-05,87,116
2018-07-06,60,157
2018-07-07,44,133
2018-07-08,32,161
2018-07-09,32,194
2018-07-10,31,204
2018-07-11,23,186
2018-07-12,33,210
2018-07-13,30,193
2018-07-14,35,169
2018-07-15,32,186
2018-07-16,28,212
2018-07-17,28,195
2018-07-18,33,229
2018-07-19,26,215
2018-07-20,35,231
2018-07-21,28,192
2018-07-22,42,213
2018-07-23,44,276
2018-07-24,44,274
2018-07-25,48,259
2018-07-26,35,273
2018-07-27,30,276
2018-07-28,29,234
2018-07-29,54,250
2018-07-30,77,335
2018-07-31,68,310
2018-08-01,73,346
2018-08-02,60,353
2018-08-03,80,390
2018-08-04,73,349
2018-08-05,57,338
2018-08-06,52,434
2018-08-07,77,406
2018-08-08,43,441
2018-08-09,31,466
2018-08-10,19,428
2018-08-11,29,375
2018-08-12,19,360
2018-08-13,30,485
2018-08-14,27,432
2018-08-15,39,452
2018-08-16,45,422
2018-08-17,32,464
2018-08-18,37,402
2018-08-19,28,384
2018-08-20,29,498
2018-08-21,28,459
2018-08-22,70,462
2018-08-23,57,477
2018-08-24,72,493
2018-08-25,68,445
2018-08-26,48,463
2018-08-27,56,541
2018-08-28,87,557
2018-08-29,49,555
2018-08-30,40,564
2018-08-31,34,561
2018-09-01,52,508
2018-09-02,42,466
2018-09-03,47,593
2018-09-04,40,585
2018-09-05,31,592
2018-09-06,31,557
2018-09-07,48,599
2018-09-08,54,552
2018-09-09,55,492
2018-09-10,69,526
2018-09-11,91,444
2018-09-12,92,440
2018-09-13,68,407
2018-09-14,77,416
2018-09-15,124,400
2018-09-16,106,360
2018-09-17,149,429
2018-09-18,126,440
2018-09-19,145,422
2018-09-20,112,421
2018-09-21,95,445
2018-09-22,73,355
2018-09-23,85,381
2018-09-24,66,352
2018-09-25,120,472
2018-09-26,66,436
2018-09-27,72,437
2018-09-28,63,435
2018-09-29,46,431
2018-09-30,28,402
2018-10-01,36,330
2018-10-02,44,311
2018-10-03,39,297
2018-10-04,38,339
2018-10-05,30,299
2018-10-06,27,349
2018-10-07,17,361
2018-10-08,31,399
2018-10-09,23,403
2018-10-10,21,379
2018-10-11,23,378
2018-10-12,27,402
2018-10-13,27,326
2018-10-14,26,326
2018-10-15,25,414
2018-10-16,37,379
2018-10-17,47,387
2018-10-18,44,368
2018-10-19,33,338
2018-10-20,34,312
2018-10-21,24,299
2018-10-22,33,370
2018-10-23,21,360
2018-10-24,20,361
2018-10-25,30,342
2018-10-26,22,354
2018-10-27,20,296
2018-10-28,16,267
2018-10-29,21,358
2018-10-30,19,318
2018-10-31,18,341
2018-11-01,11,322
2018-11-02,11,316
2018-11-03,42,299
2018-11-04,39,288
2018-11-05,123,340
2018-11-06,235,368
2018-11-07,159,363
2018-11-08,123,337
2018-11-09,111,375
2018-11-10,76,356
2018-11-11,77,314
2018-11-12,89,372
2018-11-13,71,358
2018-11-14,73,355
2018-11-15,71,350
2018-11-16,54,373
2018-11-17,77,323
2018-11-18,88,305
2018-11-19,78,417
2018-11-20,84,388
2018-11-21,70,356
2018-11-22,61,376
2018-11-23,57,396
2018-11-24,37,331
2018-11-25,44,344
2018-11-26,42,409
2018-11-27,29,352
2018-11-28,28,353
2018-11-29,21,366
2018-11-30,43,345
2018-12-01,43,331
2018-12-02,35,333
2018-12-03,41,367
2018-12-04,39,356
2018-12-05,45,359
2018-12-06,61,357
2018-12-07,52,342
2018-12-08,41,332
2018-12-09,28,312
2018-12-10,23,374
2018-12-11,20,343
2018-12-12,10,327
2018-12-13,13,328
2018-12-14,17,340
2018-12-15,23,294
2018-12-16,92,280
2018-12-17,167,380
2018-12-18,144,354
2018-12-19,182,411
2018-12-20,154,400
2018-12-21,90,410
2018-12-22,51,358
2018-12-23,61,348
2018-12-24,44,415
2018-12-25,42,403
2018-12-26,24,394
2018-12-27,30,383
2018-12-28,16,376
2018-12-29,20,354
2018-12-30,25,339
2018-12-31,24,316
2019-01-01,22,321
2019-01-02,23,402
2019-01-03,31,364
2019-01-04,34,368
2019-01-05,34,324
2019-01-06,34,327
2019-01-07,32,399
2019-01-08,37,369
2019-01-09,31,342
2019-01-10,27,369
2019-01-11,28,393
2019-01-12,30,307
2019-01-13,38,327
2019-01-14,20,390
2019-01-15,24,352
2019-01-16,21,380
2019-01-17,17,367
2019-01-18,23,363
2019-01-19,26,306
2019-01-20,21,298
2019-01-21,18,360
2019-01-22,16,353
2019-01-23,22,319
2019-01-24,26,327
2019-01-25,19,353
2019-01-26,12,280
2019-01-27,10,261
2019-01-28,14,304
2019-01-29,14,295
2019-01-30,14,301
2019-01-31,9,298
2019-02-01,6,255
2019-02-02,11,237
2019-02-03,11,204
2019-02-04,1,169
2019-02-05,4,171
2019-02-06,8,185
2019-02-07,4,190
2019-02-08,9,199
2019-02-09,7,194
2019-02-10,3,217
2019-02-11,4,275
2019-02-12,5,265
2019-02-13,4,293
2019-02-14,6,304
2019-02-15,6,287
2019-02-16,4,241
2019-02-17,8,246
2019-02-18,7,332
2019-02-19,10,284
2019-02-20,6,286
2019-02-21,8,265
2019-02-22,8,286
2019-02-23,6,266
2019-02-24,2,240
2019-02-25,4,314
2019-02-26,9,306
2019-02-27,11,281
2019-02-28,9,298
2019-03-01,12,282
2019-03-02,8,255
2019-03-03,4,234
2019-03-04,7,302
2019-03-05,8,277
2019-03-06,9,296
2019-03-07,4,293
2019-03-08,3,271
2019-03-09,5,237
2019-03-10,14,254
2019-03-11,2,292
2019-03-12,3,272
2019-03-13,6,280
2019-03-14,10,290
2019-03-15,10,273
2019-03-16,8,244
2019-03-17,2,231
2019-03-18,2,292
2019-03-19,3,253
2019-03-20,5,271
2019-03-21,6,262
2019-03-22,4,272
2019-03-23,5,232
2019-03-24,5,245
2019-03-25,0,265
2019-03-26,1,249
2019-03-27,3,231
2019-03-28,2,243
2019-03-29,1,262
2019-03-30,2,225
2019-03-31,6,218
2019-04-01,4,279
2019-04-02,3,251
2019-04-03,4,221
2019-04-04,1,232
2019-04-05,3,178
2019-04-06,0,184
2019-04-07,2,210
2019-04-08,2,251
2019-04-09,1,220
2019-04-10,0,217
2019-04-11,2,186
2019-04-12,1,218
2019-04-13,2,195
2019-04-14,1,191
2019-04-15,3,240
2019-04-16,1,233
2019-04-17,3,200
2019-04-18,3,211
2019-04-19,2,209
2019-04-20,3,196
2019-04-21,0,194
2019-04-22,0,236
2019-04-23,0,203
2019-04-24,0,210
2019-04-25,2,218
2019-04-26,0,189
2019-04-27,1,187
2019-04-28,0,213
2019-04-29,0,199
2019-04-30,1,207
2019-05-01,1,148
2019-05-02,4,159
2019-05-03,3,171
2019-05-04,0,171
2019-05-05,0,220
2019-05-06,2,195
2019-05-07,5,197
2019-05-08,1,193
2019-05-09,1,190
2019-05-10,4,193
2019-05-11,2,160
2019-05-12,1,155
2019-05-13,3,221
2019-05-14,0,188
2019-05-15,1,194
2019-05-16,2,172
2019-05-17,2,205
2019-05-18,0,178
2019-05-19,0,161
2019-05-20,1,192
2019-05-21,3,185
2019-05-22,1,193
2019-05-23,3,170
2019-05-24,3,190
2019-05-25,5,161
2019-05-26,4,167
2019-05-27,1,197
2019-05-28,1,186
2019-05-29,0,183
2019-05-30,1,191
2019-05-31,1,167
2019-06-01,1,162
2019-06-02,1,156
2019-06-03,0,176
2019-06-04,2,177
2019-06-05,2,167
2019-06-06,2,158
2019-06-07,3,126
2019-06-08,2,146
2019-06-09,1,149
2019-06-10,1,186
2019-06-11,1,175
2019-06-12,2,173
2019-06-13,0,170
2019-06-14,0,161
2019-06-15,2,146
2019-06-16,3,135
2019-06-17,2,168
2019-06-18,0,139
2019-06-19,1,140
2019-06-20,4,147
2019-06-21,3,156
2019-06-22,2,130
2019-06-23,0,153
2019-06-24,1,159
2019-06-25,0,147
2019-06-26,2,138
2019-06-27,3,143
2019-06-28,3,149
2019-06-29,1,117
2019-06-30,2,112
2019-07-01,3,150
2019-07-02,0,138
2019-07-03,0,141
2019-07-04,4,123
2019-07-05,2,141
2019-07-06,2,123
2019-07-07,4,107
2019-07-08,2,151
2019-07-09,3,140
2019-07-10,1,150
2019-07-11,0,134
2019-07-12,4,137
2019-07-13,0,96
2019-07-14,1,105
2019-07-15,3,143
2019-07-16,2,140
2019-07-17,4,129
2019-07-18,1,135
2019-07-19,0,118
2019-07-20,4,105
2019-07-21,1,106
2019-07-22,0,138
2019-07-23,0,128
2019-07-24,0,123
2019-07-25,0,128
2019-07-26,1,130
2019-07-27,2,99
2019-07-28,0,94
2019-07-29,0,137
2019-07-30,0,126
2019-07-31,3,130
2019-08-01,0,119
2019-08-02,1,116
2019-08-03,1,94
2019-08-04,2,102
2019-08-05,2,127
2019-08-06,3,123
2019-08-07,2,124
2019-08-08,7,111
2019-08-09,5,115
2019-08-10,2,96
2019-08-11,1,86
2019-08-12,2,116
2019-08-13,0,107
2019-08-14,1,104
2019-08-15,1,117
2019-08-16,1,115
2019-08-17,0,92
2019-08-18,0,83
2019-08-19,3,116
2019-08-20,4,124
2019-08-21,3,114
2019-08-22,0,101
2019-08-23,1,112
2019-08-24,1,92
2019-08-25,2,83
2019-08-26,0,115
2019-08-27,1,98
2019-08-28,2,114
2019-08-29,1,103
2019-08-30,1,121
2019-08-31,1,90
2019-09-01,1,113
2019-09-02,2,116
2019-09-03,1,109
2019-09-04,2,99
2019-09-05,2,130
2019-09-06,8,116
2019-09-07,5,110
2019-09-08,5,101
2019-09-09,4,111
2019-09-10,2,108
2019-09-11,2,106
2019-09-12,1,107
2019-09-13,1,93
2019-09-14,0,88
2019-09-15,6,105
2019-09-16,2,113
2019-09-17,3,126
2019-09-18,3,111
2019-09-19,2,109
2019-09-20,3,100
2019-09-21,4,99
2019-09-22,6,98
2019-09-23,4,105
2019-09-24,2,104
2019-09-25,3,116
2019-09-26,2,104
2019-09-27,1,95
2019-09-28,3,90
2019-09-29,7,118
2019-09-30,5,98
2019-10-01,2,68
2019-10-02,3,66
2019-10-03,3,82
2019-10-04,3,82
2019-10-05,6,80
2019-10-06,2,88
2019-10-07,0,104
2019-10-08,2,117
2019-10-09,1,98
2019-10-10,1,111
2019-10-11,1,122
2019-10-12,0,92
2019-10-13,2,89
2019-10-14,2,117
2019-10-15,1,100
2019-10-16,4,94
2019-10-17,1,108
2019-10-18,2,94
2019-10-19,0,97
2019-10-20,0,90
2019-10-21,1,112
2019-10-22,1,105
2019-10-23,2,113
2019-10-24,1,98
2019-10-25,2,99
2019-10-26,6,91
2019-10-27,1,90
2019-10-28,2,110
2019-10-29,4,94
2019-10-30,2,103
2019-10-31,3,103
2019-11-01,7,93
2019-11-02,5,96
2019-11-03,3,67
2019-11-04,3,116
2019-11-05,0,110
2019-11-06,1,101
2019-11-07,2,115
2019-11-08,2,95
2019-11-09,3,99
2019-11-10,0,93
2019-11-11,1,111
2019-11-12,2,105
2019-11-13,3,109
2019-11-14,2,86
2019-11-15,2,92
2019-11-16,2,93
2019-11-17,3,90
2019-11-18,4,106
2019-11-19,4,91
2019-11-20,1,103
2019-11-21,3,103
2019-11-22,0,104
2019-11-23,0,84
2019-11-24,1,83
2019-11-25,3,112
2019-11-26,3,89
2019-11-27,2,101
2019-11-28,0,97
2019-11-29,2,96
2019-11-30,1,76
2019-12-01,1,87
2019-12-02,0,100
2019-12-03,1,96
2019-12-04,0,83
2019-12-05,1,90
2019-12-06,0,91
2019-12-07,2,74
2019-12-08,4,96
2019-12-09,5,109
2019-12-10,2,102
2019-12-11,1,103
2019-12-12,1,93
2019-12-13,1,105
2019-12-14,2,93
2019-12-15,3,82
2019-12-16,2,114
2019-12-17,3,85
2019-12-18,0,101
2019-12-19,0,89
2019-12-20,0,91
2019-12-21,3,80
2019-12-22,3,85
2019-12-23,1,100
2019-12-24,2,99
2019-12-25,3,104
2019-12-26,3,96
2019-12-27,1,82
2019-12-28,3,87
2019-12-29,0,78
2019-12-30,0,102
2019-12-31,2,101
2020-01-01,2,73
2020-01-02,1,104
2020-01-03,2,79
2020-01-04,1,79
2020-01-05,1,77
2020-01-06,3,93
2020-01-07,1,96
2020-01-08,1,83
2020-01-09,3,78
2020-01-10,2,82
2020-01-11,2,66
2020-01-12,1,87
2020-01-13,0,98
2020-01-14,0,89
2020-01-15,2,94
2020-01-16,4,95
2020-01-17,1,78
2020-01-18,5,78
2020-01-19,4,76
2020-01-20,1,73
2020-01-21,1,74
2020-01-22,1,68
2020-01-23,5,59
2020-01-24,0,51
2020-01-25,3,54
2020-01-26,0,61
2020-01-27,2,63
2020-01-28,3,63
2020-01-29,2,78
2020-01-30,0,67
2020-01-31,1,75
2020-02-01,4,64
2020-02-02,2,81
2020-02-03,1,87
2020-02-04,1,78
2020-02-05,6,76
2020-02-06,6,75
2020-02-07,2,83
2020-02-08,1,26
2020-02-09,3,30
2020-02-10,2,97
2020-02-11,3,96
2020-02-12,1,97
2020-02-13,0,97
2020-02-14,4,92
2020-02-15,3,80
2020-02-16,1,96
2020-02-17,2,89
2020-02-18,1,99
2020-02-19,0,100
2020-02-20,5,82
2020-02-21,9,97
2020-02-22,2,83
2020-02-23,4,87
2020-02-24,3,101
2020-02-25,5,97
2020-02-26,1,109
2020-02-27,4,88
2020-02-28,2,101
2020-02-29,5,85
2020-03-01,3,77
2020-03-02,1,104
2020-03-03,4,97
2020-03-04,1,93
2020-03-05,0,92
2020-03-06,1,100
2020-03-07,3,76
2020-03-08,2,90
2020-03-09,0,92
2020-03-10,0,80
2020-03-11,0,85
2020-03-12,0,85
2020-03-13,0,81
2020-03-14,1,77
2020-03-15,1,73
2020-03-16,1,97
2020-03-17,0,80
2020-03-18,2,75
2020-03-19,0,79
2020-03-20,0,78
2020-03-21,0,80
2020-03-22,0,70
2020-03-23,1,80
2020-03-24,2,93
2020-03-25,0,74
2020-03-26,1,72
2020-03-27,2,84
2020-03-28,0,77
2020-03-29,0,71
2020-03-30,1,87
2020-03-31,0,77
2020-04-01,0,76
2020-04-02,0,80
2020-04-03,0,89
2020-04-04,0,63
2020-04-05,0,71
2020-04-06,1,70
2020-04-07,1,98
2020-04-08,1,65
2020-04-09,2,77
2020-04-10,3,83
2020-04-11,2,71
2020-04-12,3,54
2020-04-13,2,74
2020-04-14,1,86
2020-04-15,1,70
2020-04-16,1,72
2020-04-17,3,68
2020-04-18,1,64
2020-04-19,4,64
2020-04-20,6,69
2020-04-21,3,69
2020-04-22,3,83
2020-04-23,5,60
2020-04-24,2,85
2020-04-25,0,71
2020-04-26,0,76
2020-04-27,3,78
2020-04-28,1,70
2020-04-29,3,66
2020-04-30,2,79
2020-05-01,3,63
2020-05-02,2,53
2020-05-03,3,55
2020-05-04,3,62
2020-05-05,1,70
2020-05-06,1,79
2020-05-07,0,70
2020-05-08,2,61
2020-05-09,3,65
2020-05-10,0,76
2020-05-11,1,69
2020-05-12,0,63
2020-05-13,0,54
2020-05-14,1,68
2020-05-15,1,68
2020-05-16,2,50
2020-05-17,2,62
2020-05-18,3,69
2020-05-19,1,65
2020-05-20,0,72
2020-05-21,0,49
2020-05-22,0,57
2020-05-23,2,56
2020-05-24,1,53
2020-05-25,1,55
2020-05-26,0,62
2020-05-27,2,63
2020-05-28,1,71
2020-05-29,2,62
2020-05-30,7,50
2020-05-31,1,56
2020-06-01,1,62
2020-06-02,0,62
2020-06-03,2,73
2020-06-04,2,62
2020-06-05,2,58
2020-06-06,0,61
2020-06-07,1,57
2020-06-08,0,53
2020-06-09,1,59
2020-06-10,0,53
2020-06-11,2,55
2020-06-12,1,60
2020-06-13,1,54
2020-06-14,1,47
2020-06-15,1,60
2020-06-16,2,49
2020-06-17,1,49
2020-06-18,0,44
2020-06-19,1,53
2020-06-20,1,50
2020-06-21,3,54
2020-06-22,0,65
2020-06-23,3,45
2020-06-24,4,61
2020-06-25,0,49
2020-06-26,1,51
2020-06-27,0,47
2020-06-28,1,60
2020-06-29,1,61
2020-06-30,2,50
2020-07-01,0,59
2020-07-02,0,47
2020-07-03,0,50
2020-07-04,1,47
2020-07-05,0,53
2020-07-06,1,47
2020-07-07,1,39
2020-07-08,0,46
2020-07-09,1,49
2020-07-10,1,53
2020-07-11,1,50
2020-07-12,0,45
2020-07-13,1,50
2020-07-14,1,53
2020-07-15,1,49
2020-07-16,2,49
2020-07-17,3,57
2020-07-18,0,41
2020-07-19,2,49
2020-07-20,0,44
2020-07-21,0,42
2020-07-22,1,41
2020-07-23,2,35
2020-07-24,0,36
2020-07-25,3,38
2020-07-26,2,25
2020-07-27,0,53
2020-07-28,0,37
2020-07-29,1,49
2020-07-30,4,46
2020-07-31,0,45
2020-08-01,1,48
2020-08-02,1,46
2020-08-03,0,48
2020-08-04,2,43
2020-08-05,1,42
2020-08-06,0,52
2020-08-07,0,41
2020-08-08,5,48
2020-08-09,1,40
2020-08-10,1,52
2020-08-11,3,47
2020-08-12,0,44
2020-08-13,2,56
2020-08-14,1,39
2020-08-15,1,44
2020-08-16,0,32
2020-08-17,0,42
2020-08-18,0,49
2020-08-19,2,44
2020-08-20,0,49
2020-08-21,2,44
2020-08-22,2,48
2020-08-23,1,37
2020-08-24,0,50
2020-08-25,1,54
2020-08-26,0,52
2020-08-27,0,47
2020-08-28,0,38
2020-08-29,2,46
2020-08-30,0,30
2020-08-31,1,47
2020-09-01,2,38
2020-09-02,1,34
2020-09-03,3,47
2020-09-04,4,46
2020-09-05,2,37
2020-09-06,0,36
2020-09-07,2,42
2020-09-08,0,40
2020-09-09,0,41
2020-09-10,0,39
2020-09-11,0,47
2020-09-12,1,42
2020-09-13,3,35
2020-09-14,0,45
2020-09-15,0,42
2020-09-16,0,43
2020-09-17,0,30
2020-09-18,0,40
2020-09-19,0,43
2020-09-20,0,29
2020-09-21,1,40
2020-09-22,3,40
2020-09-23,0,36
2020-09-24,1,49
2020-09-25,1,34
2020-09-26,0,25
2020-09-27,0,39
2020-09-28,1,40
2020-09-29,2,44
2020-09-30,0,42
2020-10-01,0,29
2020-10-02,1,35
2020-10-03,2,26
2020-10-04,0,41
2020-10-05,2,32
2020-10-06,0,29
2020-10-07,0,31
2020-10-08,1,35
2020-10-09,1,43
2020-10-10,1,40
2020-10-11,2,33
2020-10-12,2,46
2020-10-13,1,41
2020-10-14,1,45
2020-10-15,1,43
2020-10-16,0,42
2020-10-17,0,39
2020-10-18,0,37
2020-10-19,0,40
2020-10-20,1,43
2020-10-21,0,47
2020-10-22,1,36
2020-10-23,0,44
2020-10-24,0,30
2020-10-25,0,31
2020-10-26,0,46
2020-10-27,0,49
2020-10-28,0,43
2020-10-29,1,43
2020-10-30,0,30
2020-10-31,0,37
2020-11-01,0,35
2020-11-02,0,39
2020-11-03,2,36
2020-11-04,0,46
2020-11-05,1,37
2020-11-06,2,37
2020-11-07,0,37
2020-11-08,0,33
2020-11-09,0,50
2020-11-10,1,39
2020-11-11,2,43
2020-11-12,0,42
2020-11-13,0,32
2020-11-14,1,37
2020-11-15,3,23
2020-11-16,0,33
2020-11-17,1,47
2020-11-18,0,44
2020-11-19,1,33
2020-11-20,0,35
2020-11-21,0,37
2020-11-22,4,34
2020-11-23,1,46
2020-11-24,2,36
2020-11-25,1,45
2020-11-26,6,41
2020-11-27,2,35
2020-11-28,0,37
2020-11-29,1,34
2020-11-30,0,39
2020-12-01,0,46
2020-12-02,0,41
2020-12-03,0,38
2020-12-04,0,42
2020-12-05,1,39
2020-12-06,3,39
2020-12-07,2,40
2020-12-08,1,33
2020-12-09,0,48
2020-12-10,4,31
2020-12-11,1,47
2020-12-12,1,30
2020-12-13,2,32
2020-12-14,2,45
2020-12-15,0,36
2020-12-16,0,40
2020-12-17,1,39
2020-12-18,1,40
2020-12-19,0,40
2020-12-20,1,41
2020-12-21,2,37
2020-12-22,0,39
2020-12-23,1,44
2020-12-24,2,36
2020-12-25,2,43
2020-12-26,1,36
2020-12-27,1,31
2020-12-28,1,42
2020-12-29,3,34
2020-12-30,0,34
2020-12-31,0,37
2021-01-01,4,35
2021-01-02,2,27
2021-01-03,0,29
2021-01-04,3,40
2021-01-05,2,33
2021-01-06,1,33
2021-01-07,0,28
2021-01-08,0,29
2021-01-09,0,34
2021-01-10,0,37
2021-01-11,2,39
2021-01-12,4,35
2021-01-13,3,37
2021-01-14,4,46
2021-01-15,1,42
2021-01-16,2,32
2021-01-17,1,31
2021-01-18,2,39
2021-01-19,2,34
2021-01-20,2,36
2021-01-21,1,37
2021-01-22,1,43
2021-01-23,0,37
2021-01-24,2,35
2021-01-25,1,45
2021-01-26,0,33
2021-01-27,1,44
2021-01-28,1,32
2021-01-29,1,30
2021-01-30,4,36
2021-01-31,1,31
2021-02-01,1,39
2021-02-02,1,34
2021-02-03,1,33
2021-02-04,2,36
2021-02-05,2,41
2021-02-06,0,32
2021-02-07,0,37
2021-02-08,3,31
2021-02-09,5,34
2021-02-10,1,25
2021-02-11,0,22
2021-02-12,1,21
2021-02-13,1,22
2021-02-14,5,17
2021-02-15,4,43
2021-02-16,1,25
2021-02-17,0,39
2021-02-18,1,25
2021-02-19,0,44
2021-02-20,1,37
2021-02-21,1,39
2021-02-22,1,39
2021-02-23,0,44
2021-02-24,1,43
2021-02-25,3,51
2021-02-26,1,48
2021-02-27,3,45
2021-02-28,1,50
2021-03-01,0,57
2021-03-02,0,52
2021-03-03,0,51
2021-03-04,1,49
2021-03-05,0,47
2021-03-06,3,54
2021-03-07,0,40
2021-03-08,1,39
2021-03-09,0,46
2021-03-10,0,41
2021-03-11,0,38
2021-03-12,0,36
2021-03-13,0,28
2021-03-14,1,31
2021-03-15,2,42
2021-03-16,0,33
2021-03-17,0,32
2021-03-18,2,36
2021-03-19,0,32
2021-03-20,0,34
2021-03-21,0,27
2021-03-22,0,45
2021-03-23,0,23
2021-03-24,1,33
2021-03-25,0,33
2021-03-26,0,42
2021-03-27,2,22
2021-03-28,1,30
2021-03-29,3,41
2021-03-30,2,31
2021-03-31,1,27
2021-04-01,1,25
2021-04-02,1,20
2021-04-03,3,20
2021-04-04,1,28
2021-04-05,1,20
2021-04-06,1,31
2021-04-07,0,32
2021-04-08,1,30
2021-04-09,1,27
2021-04-10,0,21
2021-04-11,1,27
2021-04-12,0,34
2021-04-13,0,29
2021-04-14,1,30
2021-04-15,2,26
2021-04-16,1,46
2021-04-17,2,39
2021-04-18,0,31
2021-04-19,0,45
2021-04-20,3,43
2021-04-21,1,37
2021-04-22,1,31
2021-04-23,0,40
2021-04-24,0,31
2021-04-25,1,46
2021-04-26,0,41
2021-04-27,1,34
2021-04-28,0,42
2021-04-29,0,32
2021-04-30,2,41
2021-05-01,0,26
2021-05-02,1,30
2021-05-03,0,26
2021-05-04,0,40
2021-05-05,0,30
2021-05-06,0,33
2021-05-07,0,42
2021-05-08,0,40
2021-05-09,1,36
2021-05-10,0,40
2021-05-11,1,39
2021-05-12,1,37
2021-05-13,0,32
2021-05-14,1,33
2021-05-15,0,30
2021-05-16,5,33
2021-05-17,1,51
2021-05-18,0,41
2021-05-19,0,42
2021-05-20,3,42
2021-05-21,1,39
2021-05-22,0,33
2021-05-23,1,28
2021-05-24,2,51
2021-05-25,1,28
2021-05-26,0,47
2021-05-27,0,38
2021-05-28,0,42
2021-05-29,1,39
2021-05-30,4,36
2021-05-31,2,47
2021-06-01,0,37
2021-06-02,2,45
2021-06-03,1,44
2021-06-04,0,33
2021-06-05,0,14
2021-06-06,1,37
2021-06-07,0,42
2021-06-08,2,39
2021-06-09,3,42
2021-06-10,6,44
2021-06-11,0,39
2021-06-12,0,41
2021-06-13,0,37
2021-06-14,1,30
2021-06-15,0,41
2021-06-16,0,36
2021-06-17,3,41
2021-06-18,0,45
2021-06-19,3,31
2021-06-20,2,34
2021-06-21,4,41
2021-06-22,1,47
2021-06-23,1,36
2021-06-24,0,29
2021-06-25,2,35
2021-06-26,0,47
2021-06-27,0,31
2021-06-28,2,34
2021-06-29,0,38
2021-06-30,1,33
2021-07-01,1,40
2021-07-02,3,38
2021-07-03,0,35
2021-07-04,0,36
2021-07-05,1,36
2021-07-06,2,32
2021-07-07,3,39
2021-07-08,0,39
2021-07-09,3,35
2021-07-10,0,42
2021-07-11,2,32
2021-07-12,0,43
2021-07-13,5,34
2021-07-14,1,32
2021-07-15,3,36
2021-07-16,0,35
2021-07-17,2,33
2021-07-18,1,4
2021-07-19,4,6
2021-07-20,3,43
2021-07-21,3,43
2021-07-22,1,42
2021-07-23,0,42
2021-07-24,2,38
2021-07-25,1,34
2021-07-26,0,41
2021-07-27,1,31
2021-07-28,2,44
2021-07-29,2,36
2021-07-30,2,40
2021-07-31,3,35
2021-08-01,2,31
2021-08-02,0,40
2021-08-03,1,41
2021-08-04,1,43
2021-08-05,1,38
2021-08-06,2,49
2021-08-07,1,45
2021-08-08,3,35
2021-08-09,2,48
2021-08-10,2,42
2021-08-11,0,39
2021-08-12,1,36
2021-08-13,2,44
2021-08-14,0,38
2021-08-15,0,29
2021-08-16,2,46
2021-08-17,2,35
2021-08-18,1,47
2021-08-19,5,41
2021-08-20,2,34
2021-08-21,2,28
2021-08-22,2,36
2021-08-23,1,44
2021-08-24,0,38
2021-08-25,3,37
2021-08-26,3,37
2021-08-27,1,39
2021-08-28,1,33
2021-08-29,0,36
2021-08-30,4,46
2021-08-31,3,40
2021-09-01,2,39
2021-09-02,2,39
2021-09-03,4,44
2021-09-04,2,41
2021-09-05,3,31
2021-09-06,2,41
2021-09-07,2,34
2021-09-08,2,41
2021-09-09,3,43
2021-09-10,1,38
2021-09-11,4,44
2021-09-12,0,34
2021-09-13,5,45
2021-09-14,3,38
2021-09-15,3,41
2021-09-16,6,40
2021-09-17,1,39
2021-09-18,5,41
2021-09-19,2,32
2021-09-20,2,36
2021-09-21,3,34
2021-09-22,1,31
2021-09-23,2,37
2021-09-24,1,38
2021-09-25,0,36
2021-09-26,1,40
2021-09-27,2,37
2021-09-28,0,44
2021-09-29,1,40
2021-09-30,4,33
2021-10-01,0,41
2021-10-02,1,32
2021-10-03,2,34
2021-10-04,2,23
2021-10-05,0,44
2021-10-06,2,39
2021-10-07,1,38
2021-10-08,0,48
2021-10-09,0,38
2021-10-10,2,38
2021-10-11,0,34
2021-10-12,2,38
2021-10-13,3,43
2021-10-14,2,49
2021-10-15,0,32
2021-10-16,0,36
2021-10-17,5,35
2021-10-18,7,45
2021-10-19,1,40
2021-10-20,6,49
2021-10-21,2,44
2021-10-22,4,49
2021-10-23,0,38
2021-10-24,1,40
2021-10-25,1,45
2021-10-26,0,48
2021-10-27,1,38
2021-10-28,0,44
2021-10-29,3,49
2021-10-30,1,31
2021-10-31,2,37
2021-11-01,3,51
2021-11-02,2,41
2021-11-03,1,41
2021-11-04,3,44
2021-11-05,4,45
2021-11-06,1,40
2021-11-07,5,42
2021-11-08,1,52
2021-11-09,1,46
2021-11-10,3,45
2021-11-11,3,43
2021-11-12,2,49
2021-11-13,7,44
2021-11-14,7,39
2021-11-15,4,48
2021-11-16,5,48
2021-11-17,4,46
2021-11-18,7,50
2021-11-19,11,52
2021-11-20,9,50
2021-11-21,2,46
2021-11-22,3,47
2021-11-23,3,49
2021-11-24,2,57
2021-11-25,1,50
2021-11-26,4,47
2021-11-27,2,43
2021-11-28,2,39
2021-11-29,3,52
2021-11-30,3,52
2021-12-01,2,37
2021-12-02,0,43
2021-12-03,2,57
2021-12-04,1,36
2021-12-05,4,42
2021-12-06,1,48
2021-12-07,2,48
2021-12-08,1,53
2021-12-09,3,51
2021-12-10,8,57
2021-12-11,8,42
2021-12-12,5,45
2021-12-13,0,54
2021-12-14,4,42
2021-12-15,1,39
2021-12-16,2,41
2021-12-17,2,56
2021-12-18,0,38
2021-12-19,0,36
2021-12-20,3,47
2021-12-21,2,44
2021-12-22,1,44
2021-12-23,1,41
2021-12-24,5,42
2021-12-25,5,40
2021-12-26,0,35
2021-12-27,1,52
2021-12-28,3,51
2021-12-29,2,43
2021-12-30,1,47
2021-12-31,0,46
2022-01-01,0,27
2022-01-02,2,34
2022-01-03,0,35
2022-01-04,3,41
2022-01-05,1,51
2022-01-06,1,43
2022-01-07,0,43
2022-01-08,3,40
2022-01-09,2,2
2022-01-10,2,0
2022-01-11,1,46
2022-01-12,3,44
2022-01-13,0,46
2022-01-14,1,50
2022-01-15,2,31
2022-01-16,1,26
2022-01-17,1,48
2022-01-18,1,42
2022-01-19,5,42
2022-01-20,4,52
2022-01-21,1,41
2022-01-22,1,40
2022-01-23,2,30
2022-01-24,0,57
2022-01-25,3,31
2022-01-26,1,40
2022-01-27,3,41
2022-01-28,1,34
2022-01-29,3,31
2022-01-30,1,31
2022-01-31,0,29
2022-02-01,1,27
2022-02-02,5,26
2022-02-03,3,29
2022-02-04,0,38
2022-02-05,2,34
2022-02-06,1,32
2022-02-07,1,36
2022-02-08,2,36
2022-02-09,1,40
2022-02-10,0,41
2022-02-11,2,37
2022-02-12,2,34
2022-02-13,0,31
2022-02-14,0,45
2022-02-15,2,43
2022-02-16,1,40
2022-02-17,2,44
2022-02-18,1,51
2022-02-19,1,33
2022-02-20,2,35
2022-02-21,0,44
2022-02-22,0,48
2022-02-23,1,46
2022-02-24,1,42
2022-02-25,2,43
2022-02-26,4,35
2022-02-27,0,32
2022-02-28,0,42
2022-03-01,2,41
2022-03-02,3,41
2022-03-03,1,43
2022-03-04,2,45
2022-03-05,1,35
2022-03-06,2,34
2022-03-07,2,45
2022-03-08,0,35
2022-03-09,0,46
2022-03-10,0,35
2022-03-11,3,39
2022-03-12,2,31
2022-03-13,0,36
2022-03-14,0,36
2022-03-15,0,40
2022-03-16,2,32
2022-03-17,2,35
2022-03-18,2,37
2022-03-19,1,31
2022-03-20,1,38
2022-03-21,2,34
2022-03-22,1,34
2022-03-23,0,44
2022-03-24,2,29
2022-03-25,2,40
2022-03-26,1,39
2022-03-27,3,29
2022-03-28,1,40
2022-03-29,0,39
2022-03-30,1,42
2022-03-31,1,45
2022-04-01,0,36
2022-04-02,1,42
2022-04-03,3,39
2022-04-04,3,30
2022-04-05,1,39
2022-04-06,5,43
2022-04-07,1,37
2022-04-08,2,43
2022-04-09,1,36
2022-04-10,0,30
2022-04-11,0,37
2022-04-12,3,38
2022-04-13,0,46
2022-04-14,2,37
2022-04-15,2,40
2022-04-16,1,31
2022-04-17,2,29
2022-04-18,1,36
2022-04-19,0,34
2022-04-20,0,30
2022-04-21,1,35
2022-04-22,0,34
2022-04-23,1,27
2022-04-24,2,33
2022-04-25,3,38
2022-04-26,1,35
2022-04-27,0,33
2022-04-28,1,36
2022-04-29,0,32
2022-04-30,0,40
2022-05-01,1,33
2022-05-02,2,28
2022-05-03,1,37
2022-05-04,2,36
2022-05-05,1,34
2022-05-06,1,39
2022-05-07,0,32
2022-05-08,1,36
2022-05-09,2,41
2022-05-10,0,43
2022-05-11,0,42
2022-05-12,2,43
2022-05-13,2,41
2022-05-14,1,32
2022-05-15,3,34
2022-05-16,3,50
2022-05-17,0,37
2022-05-18,3,42
2022-05-19,0,40
2022-05-20,1,42
2022-05-21,0,39
2022-05-22,1,36
2022-05-23,3,34
2022-05-24,0,44
2022-05-25,0,32
2022-05-26,1,33
2022-05-27,0,44
2022-05-28,1,28
2022-05-29,0,34
2022-05-30,2,40
2022-05-31,0,28
2022-06-01,1,35
2022-06-02,0,39
2022-06-03,1,31
2022-06-04,2,29
2022-06-05,1,33
2022-06-06,2,43
2022-06-07,1,41
2022-06-08,2,36
2022-06-09,1,32
2022-06-10,0,33
2022-06-11,0,26
2022-06-12,2,33
2022-06-13,0,34
2022-06-14,0,33
2022-06-15,1,27
2022-06-16,3,43
2022-06-17,2,40